Погода в Вайдене

Германия     49°40′21″N   12°09′21″E
темп.,
°C
ветер,
м/с
пор.,
м/с
влажн.,
%
обл.,
%
осадки,
мм/ч
давл.,
гПа
погр.,
м
9 мая, вс
вс923:00+6юв227886 0.0 101723
02:00+5юв22798 0.0 101714
05:00+4юв228159 0.0 101612
08:00+10ююв246320 0.0 1015172
11:00+18ю354342 0.0 1013566
14:00+22ю343836 0.0 10111155
17:00+23юв454181 0.0 10091407
20:00+16в4117280 0.0 1009305
10 мая, пн
пн1023:00+12в4128186 0.0 1009255
02:00+9в389284 0.0 1009189
05:00+7в2297100 0.0 100939
08:00+12вюв2378100 0.0 1008168
11:00+19юз235979 0.0 1009653
14:00+23юз234514 0.0 10081181
17:00+23в0146100 0.0 10081450
20:00+17в377879 0.0 1008182
11 мая, вт
вт1123:00+16в51380100 0.0 1007466
02:00+13всв3892100 0.1 1006236
05:00+12вюв1198100 0.0 100623
08:00+13юз139398 0.0 1007372
11:00+13ююз2294100 0.1 1007381
14:00+15всв118389 0.1 1006517
17:00+19ссз2266100 0.1 1004870
20:00+14ссз2597100 1.7 1003250
12 мая, ср
ср1223:00+12сз3699100 5.1 1004393
02:00+11сз2698100 6.9 1004430
05:00+10зсз3899100 0.6 1004593
08:00+9зсз4899100 6.8 1005536
11:00+8зсз4998100 10.1 1007533
14:00+9зсз3897100 11.0 1008578
17:00+9зсз2895100 0.1 1008635
20:00+8зсз1497100 0.2 1009231
13 мая, чт
чт1323:00+8з2699100 0.1 1009355
02:00+8з2799100 0.4 1008417
05:00+8зсз2699100 0.1 1008429
08:00+8сз2796100 0.3 1008542
11:00+9сз2692100 0.8 1008825
14:00+9сз2493100 2.8 1008445
17:00+9зсз1496100 2.0 1008298
20:00+8сз1496100 3.1 1009250